Location: Hilton Head Island
(32.2163°N, 80.7526°W)
Time: 15:56:31
(UTC-05:00)

Explorer 11/Cluster Stage 4 - Pass Details

Date: 16 February 2026
Orbit: 463 x 1176 km, 28.8° (Epoch: 6 March)

Event Time Altitude Azimuth Distance (km) Brightness Sun altitude
Rises 19:16:31 0° 260° (W) 2,574 11.2 -14.7°
Reaches altitude 10° 19:19:24 10° 236° (SW) 1,774 9.4 -15.3°
Maximum altitude 19:21:44 15° 200° (SSW) 1,566 8.4 -15.8°
Drops below altitude 10° 19:24:17 10° 166° (SSE) 1,959 8.5 -16.3°
Enters shadow 19:26:19 - 150° (SSE) 2,547 9.0 -16.7°
Sets 19:27:45 0° 143° (SE) 3,025 - -17.0°
